This is the latest recevied weather packets stored in our database for station/object SP6KBU-12. If no packets are shown the sender has not sent any weather packets the latest 10 day(s).
| Time | Temp. | Humidity | Pressure | Rain* | Wind** | Luminosity | Snow |
|---|---|---|---|---|---|---|---|
| 1777558242 | 15.56° C | 27% | 1030.8 hPa | - | - | - | - |
| 1777557340 | 16.11° C | 26% | 1030.8 hPa | - | - | - | - |
| 1777556439 | 15.56° C | 26% | 1031 hPa | - | - | - | - |
| 1777555538 | 16.11° C | 26% | 1031.1 hPa | - | - | - | - |
| 1777554637 | 16.11° C | 25% | 1031 hPa | - | - | - | - |
| 1777553737 | 15° C | 26% | 1031.1 hPa | - | - | - | - |
| 1777552837 | 16.11° C | 25% | 1031.4 hPa | - | - | - | - |
| 1777551936 | 15.56° C | 25% | 1031.4 hPa | - | - | - | - |
| 1777551036 | 16.11° C | 26% | 1031.7 hPa | - | - | - | - |
| 1777550135 | 15° C | 25% | 1031.8 hPa | - | - | - | - |
| 1777549235 | 13.89° C | 26% | 1031.7 hPa | - | - | - | - |
| 1777548335 | 15.56° C | 26% | 1031.6 hPa | - | - | - | - |
| 1777547435 | 14.44° C | 27% | 1031.9 hPa | - | - | - | - |
| 1777546536 | 14.44° C | 26% | 1032 hPa | - | - | - | - |
| 1777545636 | 12.78° C | 28% | 1032.1 hPa | - | - | - | - |
| 1777544736 | 12.78° C | 26% | 1032.2 hPa | - | - | - | - |
| 1777543836 | 12.78° C | 26% | 1032.4 hPa | - | - | - | - |
| 1777543211 | 13.33° C | 26% | 1032.5 hPa | - | - | - | - |
| 1777542311 | 13.89° C | 26% | 1032.7 hPa | - | - | - | - |
| 1777541411 | 14.44° C | 27% | 1032.7 hPa | - | - | - | - |
| 1777540510 | 12.78° C | 28% | 1032.8 hPa | - | - | - | - |
| 1777539609 | 11.67° C | 29% | 1032.9 hPa | - | - | - | - |
| 1777538709 | 11.11° C | 29% | 1032.8 hPa | - | - | - | - |
| 1777537809 | 11.11° C | 29% | 1032.7 hPa | - | - | - | - |
| 1777536909 | 10.56° C | 29% | 1032.8 hPa | - | - | - | - |
* Rain since midnight (hover to see other rain measurements)
** Current wind speed in m/s (hover to see current wind gust speed)